COSMOS 1867 COOLANT

Satellite information

Favourite Embed

Satellite Type and Status

DEBRISIN ORBIT

Key statistics

Satellite COSMOS 1867 COOLANT at a glance.

Uptime

13815

Days in orbit

Revolutions

≈ 14.3

Per day

Orbit

LEO

Low Earth Orbit

Inclination

65.0

Latest

Satellite identification and parameters

Extended collection of information and parameters for COSMOS 1867 COOLANT.

Object identification

Identified? True

Debris? False

Object name: COSMOS 1867 COOLANT

International designator: 1987-060X

Object number (NORAD): 39660

Object ID (CCSDS): 39660

Country: COMMONWEALTH OF INDEPENDENT STATES (CIS)

Current information (Y/N): Y

RCS size: SMALL

Orbital parameters

Period: 100.455 minutes

Inclination: 65.0082 deg

SMA: 7158.273 km

Apoapsis: 791.618 km

Periapsis: 768.658 km

RAAN: 78.6747 deg

Eccentricy: 0.0016037

Argument of periapsis: 258.6625 deg

Mean anomaly: 101.2659 deg

Mean motion: 14.33475819 rev/day

Mean motion (dot): 0.00000652 rev/day2

B* drag term: 0.00027139 1/REarth

Two-line elements (TLE)

Creation date: May 6, 2025, 3:54 a.m.

Reference frame: TEME

Reference center: EARTH

Epoch: May 5, 2025, 11:33 a.m. UTC

TLE line 0: 0 COSMOS 1867 COOLANT

TLE line 1: 1 39660U 87060X 25125.48182262 .00000652 00000-0 27139-3 0 9991

TLE line 2: 2 39660 65.0082 78.6747 0016037 258.6625 101.2659 14.33475819578152

Live tracking on map

Real-time ground track for satellite COSMOS 1867 COOLANT.

In-orbit conjunctions

A list of the most updated potential collisions computed for object COSMOS 1867 COOLANT.

Target Orbit TCA Probability of collision Miss distance Type
FENGYUN 1C DEB SSO 2025-01-07 04:03:15 0.0001393245 115.0 (m) DEBRIS
COSMOS 158 LEO 2024-11-29 23:46:03 0.0001303265 404.0 (m) PAYLOAD
CZ-6A DEB LEO 2024-11-12 22:34:32 0.00101693 499.0 (m) DEBRIS
COSMOS 540 LEO 2024-09-03 02:44:17 0.0002182753 637.0 (m) PAYLOAD
DMSP 5D-2 F10 (USA 68) SSO 2024-08-16 20:10:33 0.004508173 35.0 (m) PAYLOAD

Associated space launch

Nuclear-powered magnetospheric research satellite

COSMOS 1867 COOLANT was lifted into orbit during the mission ‘Tsiklon-2 | Plasma-A 2’, on board a Tsiklon-2 space rocket.

The launch took place on July 10, 1987, 3:35 p.m. from 90.

For more information about the launch, click the button.

Launch to space Tsiklon-2 | Plasma-A 2
Tsiklon-2 | Plasma-A 2

Agency: N/A

Status: Launch Successful

Launch date: July 10, 1987, 3:35 p.m. UTC

Rocket: Tsiklon-2

Launch pad: 90

Location: Baikonur Cosmodrome, Republic of Kazakhstan

...

Latest news about this satellite

There are no fresh news available about this satellite. Check back as we update our databases every day.


Newsletter sign-up

Weekly statistics, charts and insights to help you stay on top of the space industry.